| time (UTC) | temp F | wind direction | speed MPH | gust MPH | rain 1hr in | rain 24hr in | rain mn in | humidity % | barometer mb |
| 20260831113007 | 0 | 0.0 | 0.0 | 0.00 | 0.02 | 0.00 | 1021.2 | ||
| 20260831111503 | 0 | 0.0 | 0.0 | 0.00 | 0.02 | 0.00 | 1021.1 | ||
| 20260831110100 | 0 | 0.0 | 0.0 | 0.00 | 0.02 | 0.00 | 1020.6 | ||
| 20260831104557 | 0 | 0.0 | 0.0 | 0.00 | 0.02 | 0.00 | 1020.6 | ||
| 20260831103050 | 0 | 0.0 | 0.0 | 0.00 | 0.02 | 0.00 | 1020.7 | ||
| 20260831101600 | 0 | 0.0 | 0.0 | 0.00 | 0.02 | 0.00 | 1020.3 | ||
| 20260831100055 | 0 | 0.0 | 0.0 | 0.00 | 0.02 | 0.00 | 1020.2 | ||
| 20260831094541 | 0 | 191 | 0.0 | 0.0 | 0.00 | 0.02 | 0.00 | 95 | 1020.1 |
| 20260831093035 | 64 | 194 | 0.0 | 0.0 | 0.00 | 0.02 | 0.00 | 95 | 1020.2 |
| 20260831091534 | 64 | 194 | 0.0 | 0.0 | 0.00 | 0.02 | 0.00 | 95 | 1020.1 |
| 20260831090037 | 65 | 194 | 0.0 | 0.0 | 0.00 | 0.02 | 0.00 | 94 | 1019.9 |
| 20260831084533 | 65 | 194 | 0.0 | 0.0 | 0.00 | 0.02 | 0.00 | 94 | 1020.1 |
| 20260831083031 | 65 | 194 | 0.0 | 0.0 | 0.00 | 0.02 | 0.00 | 94 | 1020.1 |
| 20260831081531 | 65 | 194 | 0.0 | 0.0 | 0.00 | 0.02 | 0.00 | 94 | 1020.2 |
| 20260831080030 | 65 | 194 | 0.0 | 0.0 | 0.00 | 0.02 | 0.00 | 94 | 1020.1 |
| 20260831074530 | 65 | 194 | 0.0 | 0.0 | 0.00 | 0.02 | 0.00 | 94 | 1020.0 |
| 20260831073030 | 65 | 194 | 0.0 | 0.0 | 0.00 | 0.02 | 0.00 | 95 | 1019.8 |
| 20260831071527 | 65 | 194 | 0.0 | 0.0 | 0.00 | 0.02 | 0.00 | 95 | 1020.0 |
| 20260831070035 | 65 | 194 | 0.0 | 0.0 | 0.00 | 0.02 | 0.00 | 95 | 1020.1 |
| 20260831064526 | 65 | 194 | 0.0 | 0.0 | 0.00 | 0.02 | 0.00 | 95 | 1020.3 |
| 20260831063025 | 65 | 194 | 0.0 | 0.0 | 0.00 | 0.02 | 0.00 | 95 | 1020.3 |
| 20260831061527 | 65 | 194 | 0.0 | 0.0 | 0.00 | 0.02 | 0.00 | 96 | 1020.3 |
| 20260831060027 | 65 | 194 | 0.0 | 0.0 | 0.00 | 0.02 | 0.00 | 96 | 1020.1 |
| 20260831054527 | 65 | 194 | 0.0 | 0.0 | 0.00 | 0.02 | 0.00 | 96 | 1020.4 |
| 20260831053024 | 65 | 194 | 0.0 | 0.0 | 0.00 | 0.02 | 0.00 | 95 | 1020.3 |
| 20260831051527 | 65 | 195 | 0.0 | 0.0 | 0.00 | 0.02 | 0.00 | 95 | 1020.6 |
| 20260831050021 | 65 | 194 | 0.0 | 0.0 | 0.00 | 0.02 | 0.00 | 95 | 1020.2 |
| 20260831044520 | 66 | 194 | 0.0 | 0.0 | 0.00 | 0.02 | 0.00 | 95 | 1020.6 |
| 20260831043016 | 66 | 194 | 0.0 | 0.0 | 0.00 | 0.02 | 0.00 | 95 | 1020.3 |
| 20260831041522 | 66 | 194 | 0.0 | 0.0 | 0.00 | 0.02 | 0.00 | 95 | 1020.1 |
| 20260831040012 | 67 | 194 | 0.0 | 0.0 | 0.00 | 0.02 | 0.00 | 95 | 1020.0 |
| 20260831034512 | 67 | 194 | 0.0 | 0.0 | 0.00 | 0.02 | 0.02 | 95 | 1020.0 |
| 20260831033011 | 68 | 194 | 0.0 | 0.0 | 0.00 | 0.02 | 0.02 | 95 | 1020.0 |
| 20260831031511 | 68 | 194 | 0.0 | 0.0 | 0.00 | 0.02 | 0.02 | 95 | 1020.2 |
| 20260831030012 | 69 | 194 | 0.0 | 0.0 | 0.00 | 0.02 | 0.02 | 96 | 1020.2 |
| 20260831024510 | 69 | 194 | 0.0 | 0.0 | 0.00 | 0.02 | 0.02 | 96 | 1020.4 |
| 20260831023009 | 69 | 194 | 0.0 | 0.0 | 0.00 | 0.02 | 0.02 | 96 | 1020.5 |
| 20260831021508 | 69 | 194 | 0.0 | 0.0 | 0.00 | 0.02 | 0.02 | 96 | 1020.6 |
| 20260831020008 | 69 | 194 | 0.0 | 0.0 | 0.00 | 0.02 | 0.02 | 96 | 1020.6 |
| 20260831014507 | 69 | 194 | 0.0 | 0.0 | 0.01 | 0.02 | 0.02 | 96 | 1020.8 |
| 20260831013006 | 70 | 194 | 0.0 | 0.0 | 0.01 | 0.02 | 0.02 | 95 | 1020.6 |
| 20260831011508 | 70 | 194 | 0.0 | 0.0 | 0.01 | 0.02 | 0.02 | 95 | 1020.5 |
| 20260831010007 | 70 | 194 | 0.0 | 0.0 | 0.01 | 0.01 | 0.01 | 95 | 1020.2 |
| 20260831004505 | 70 | 194 | 0.0 | 0.0 | 0.01 | 0.01 | 0.01 | 95 | 1020.1 |
| 20260831003004 | 70 | 194 | 0.0 | 0.0 | 0.01 | 0.01 | 0.01 | 94 | 1019.9 |
| 20260831001504 | 70 | 194 | 0.0 | 0.0 | 0.01 | 0.01 | 0.01 | 94 | 1019.6 |
| 20260831000004 | 71 | 194 | 0.0 | 0.0 | 0.00 | 0.00 | 0.00 | 93 | 1019.5 |
| 20260830234503 | 71 | 194 | 0.0 | 0.0 | 0.00 | 0.00 | 0.00 | 92 | 1019.4 |
| 20260830233002 | 72 | 194 | 0.0 | 0.0 | 0.00 | 0.00 | 0.00 | 92 | 1019.2 |
| 20260830231502 | 72 | 194 | 0.0 | 0.0 | 0.00 | 0.00 | 0.00 | 91 | 1019.2 |
| 20260830230001 | 72 | 194 | 0.0 | 0.0 | 0.00 | 0.00 | 0.00 | 91 | 1019.2 |
| 20260830224502 | 73 | 194 | 0.0 | 0.0 | 0.00 | 0.00 | 0.00 | 90 | 1019.4 |
| 20260830223103 | 73 | 194 | 0.0 | 0.0 | 0.00 | 0.00 | 0.00 | 90 | 1019.3 |
| 20260830221600 | 73 | 194 | 0.0 | 0.0 | 0.00 | 0.00 | 0.00 | 89 | 1019.3 |
| 20260830220059 | 73 | 194 | 0.0 | 0.0 | 0.00 | 0.00 | 0.00 | 89 | 1019.4 |
| 20260830214558 | 74 | 194 | 0.0 | 0.0 | 0.00 | 0.00 | 0.00 | 87 | 1019.4 |
| 20260830213058 | 75 | 194 | 0.0 | 0.0 | 0.00 | 0.00 | 0.00 | 86 | 1019.5 |
| 20260830211557 | 76 | 195 | 0.0 | 0.0 | 0.00 | 0.00 | 0.00 | 84 | 1019.2 |
| 20260830210056 | 76 | 194 | 0.0 | 3.0 | 0.00 | 0.00 | 0.00 | 81 | 1019.2 |
| 20260830204554 | 77 | 194 | 0.0 | 2.0 | 0.00 | 0.00 | 0.00 | 82 | 1019.4 |
| 20260830203114 | 77 | 194 | 0.0 | 3.0 | 0.00 | 0.00 | 0.00 | 82 | 1019.6 |
| 20260830201557 | 77 | 194 | 0.0 | 2.0 | 0.00 | 0.00 | 0.00 | 82 | 1019.6 |
| 20260830200049 | 76 | 194 | 0.0 | 3.0 | 0.00 | 0.00 | 0.00 | 83 | 1019.8 |
| 20260830194546 | 76 | 194 | 0.0 | 3.0 | 0.00 | 0.00 | 0.00 | 84 | 1019.8 |
| 20260830193041 | 75 | 194 | 0.0 | 2.0 | 0.00 | 0.00 | 0.00 | 85 | 1020.0 |
| 20260830191539 | 74 | 194 | 0.0 | 2.0 | 0.00 | 0.00 | 0.00 | 86 | 1020.3 |
| 20260830190036 | 74 | 194 | 0.0 | 2.0 | 0.00 | 0.00 | 0.00 | 87 | 1020.6 |
| 20260830184531 | 73 | 194 | 0.0 | 3.0 | 0.00 | 0.00 | 0.00 | 87 | 1020.7 |
| 20260830183026 | 72 | 194 | 0.0 | 1.0 | 0.00 | 0.00 | 0.00 | 88 | 1021.0 |
| 20260830181525 | 72 | 194 | 0.0 | 2.0 | 0.00 | 0.00 | 0.00 | 88 | 1021.3 |
| 20260830180023 | 72 | 194 | 0.0 | 2.0 | 0.00 | 0.00 | 0.00 | 87 | 1021.4 |
| 20260830174522 | 72 | 194 | 0.0 | 2.0 | 0.00 | 0.00 | 0.00 | 87 | 1021.5 |
| 20260830173032 | 72 | 194 | 0.0 | 2.0 | 0.00 | 0.00 | 0.00 | 86 | 1021.6 |
| 20260830171521 | 72 | 194 | 0.0 | 3.0 | 0.00 | 0.00 | 0.00 | 86 | 1021.7 |
| 20260830170019 | 73 | 194 | 0.0 | 3.0 | 0.00 | 0.00 | 0.00 | 85 | 1021.8 |
| 20260830164530 | 72 | 194 | 0.0 | 3.0 | 0.00 | 0.00 | 0.00 | 85 | 1021.6 |
| 20260830163019 | 72 | 194 | 1.0 | 5.0 | 0.00 | 0.00 | 0.00 | 83 | 1021.8 |
| 20260830161521 | 72 | 194 | 1.0 | 4.0 | 0.00 | 0.00 | 0.00 | 82 | 1021.9 |
| 20260830160015 | 0 | 0.0 | 0.0 | 0.00 | 0.00 | 0.00 | 1022.2 | ||
| 20260830154510 | 0 | 0.0 | 0.0 | 0.00 | 0.00 | 0.00 | 1022.6 | ||
| 20260830153005 | 0 | 0.0 | 0.0 | 0.00 | 0.00 | 0.00 | 1022.5 | ||
| 20260830151600 | 0 | 0.0 | 0.0 | 0.00 | 0.00 | 0.00 | 1022.6 | ||
| 20260830150056 | 0 | 0.0 | 0.0 | 0.00 | 0.00 | 0.00 | 1022.9 | ||
| 20260830144601 | 0 | 0.0 | 0.0 | 0.00 | 0.00 | 0.00 | 1023.0 | ||
| 20260830143047 | 0 | 0.0 | 0.0 | 0.00 | 0.00 | 0.00 | 1023.1 | ||
| 20260830141543 | 0 | 0.0 | 0.0 | 0.00 | 0.00 | 0.00 | 1023.0 | ||
| 20260830140038 | 0 | 0.0 | 0.0 | 0.00 | 0.00 | 0.00 | 1022.9 | ||
| 20260830134535 | 0 | 0.0 | 0.0 | 0.00 | 0.00 | 0.00 | 1023.1 | ||
| 20260830133030 | 0 | 0.0 | 0.0 | 0.00 | 0.00 | 0.00 | 1023.1 | ||
| 20260830131525 | 0 | 0.0 | 0.0 | 0.00 | 0.00 | 0.00 | 1023.2 | ||
| 20260830130023 | 0 | 0.0 | 0.0 | 0.00 | 0.00 | 0.00 | 1023.3 | ||
| 20260830124519 | 0 | 0.0 | 0.0 | 0.00 | 0.00 | 0.00 | 1023.5 | ||
| 20260830123012 | 0 | 0.0 | 0.0 | 0.00 | 0.00 | 0.00 | 1023.6 | ||
| 20260830121507 | 0 | 0.0 | 0.0 | 0.00 | 0.00 | 0.00 | 1023.6 | ||
| 20260830120003 | 0 | 0.0 | 0.0 | 0.00 | 0.00 | 0.00 | 1023.7 | ||
| 20260830114619 | 0 | 0.0 | 0.0 | 0.00 | 0.00 | 0.00 | 1023.7 |